This demonstration page uses our WeatherBlox Daily Observations layout. Learn more.

Left ArrowRight Arrow

38.80484, -77.04692

Hourly Observations for April 20, 2016

Temp ( °F °C ) Dew Point ( °F °C ) Humidity (%) Winds ( mph kmh ) Pressure ( in mb ) Visibility ( mi km ) Precip ( " mm )
12:52 am 00:52 Mostly Clear 61 16.1 28 -2.2 29 29 NNE 17 28 30.19 1022 10 16 0.00 0.00
1:52 am 01:52 Mostly Cloudy 59 15 22 -5.6 24 24 N 15 24 30.21 1023 10 16 0.00 0.00
2:52 am 02:52 Mostly Cloudy 57 13.9 22 -5.6 26 26 NNE 13 20 30.22 1023 10 16 0.00 0.00
3:52 am 03:52 Mostly Cloudy 55 12.8 23 -5 29 29 NE 10 17 30.24 1024 10 16 0.00 0.00
4:52 am 04:52 Partly Cloudy 54 12.2 24 -4.4 31 31 NNE 5 7 30.24 1024 10 16 0.00 0.00
5:52 am 05:52 Mostly Clear 52 11.1 26 -3.3 37 37 NNW 3 6 30.26 1025 10 16 0.00 0.00
6:52 am 06:52 Mostly Sunny 50 10 29 -1.7 44 44 NNW 9 15 30.28 1026 10 16 0.00 0.00
7:52 am 07:52 Mostly Sunny 55 12.8 29 -1.7 37 37 NNW 8 13 30.30 1026 10 16 0.00 0.00
8:52 am 08:52 Sunny 58 14.4 29 -1.7 33 33 undefined N/A 30.32 1027 10 16 0.00 0.00
9:52 am 09:52 Mostly Sunny 60 15.6 27 -2.8 28 28 ENE 6 9 30.33 1027 10 16 0.00 0.00
10:52 am 10:52 Mostly Sunny 62 16.7 29 -1.7 29 29 NE 7 11 30.33 1027 10 16 0.00 0.00
11:52 am 11:52 Sunny 64 17.8 28 -2.2 26 26 NNE 5 7 30.32 1027 10 16 0.00 0.00
12:52 pm 12:52 Sunny 65 18.3 23 -5 20 20 VRB 5 7 30.29 1026 10 16 0.00 0.00
1:52 pm 13:52 Mostly Sunny 67 19.4 24 -4.4 20 20 VRB 3 6 30.28 1025 10 16 0.00 0.00
2:52 pm 14:52 Partly Cloudy 69 20.6 25 -3.9 19 19 VRB 3 6 30.25 1025 10 16 0.00 0.00
3:52 pm 15:52 Mostly Cloudy 68 20 24 -4.4 19 19 SSE 5 7 30.23 1024 10 16 0.00 0.00
4:52 pm 16:52 Mostly Cloudy 69 20.6 24 -4.4 18 18 S 3 6 30.21 1023 10 16 0.00 0.00
5:52 pm 17:52 Partly Cloudy 70 21.1 24 -4.4 18 18 S 3 6 30.20 1023 10 16 0.00 0.00
6:52 pm 18:52 Partly Cloudy 68 20 31 -0.6 25 25 S 6 9 30.20 1023 10 16 0.00 0.00
7:52 pm 19:52 Mostly Cloudy 65 18.3 30 -1.1 27 27 SE 13 20 30.20 1023 10 16 0.00 0.00
8:52 pm 20:52 Partly Cloudy 62 16.7 31 -0.6 31 31 SSE 9 15 30.21 1023 10 16 0.00 0.00
9:52 pm 21:52 Mostly Clear 61 16.1 32 0 34 34 S 12 19 30.22 1023 10 16 0.00 0.00
10:52 pm 22:52 Mostly Cloudy 59 15 32 0 36 36 SSE 13 20 30.22 1023 10 16 0.00 0.00
11:52 pm 23:52 Partly Cloudy 56 13.3 39 3.9 53 53 S 14 22 30.22 1023 10 16 0.00 0.00

Powered by AerisWeather